Total_Precipitation_Accumulation
0.38 0.43 0.42 0.38 0.45 0.64 1.10 1.70 1.16 0.28 0.34 0.88 0.62 0.22 0.02 0.00 0.00 0.00 0.00 0.00 0.00 0.00 0.00 0.00 0.00 0.00 0.03 0.02 0.04 0.10 0.14 0.12 0.05 0.01 0.00 0.00 0.07 0.15 0.33 0.62 0.38 0.23 0.23 0.47
0.62 0.60 0.66 0.55 0.57 0.91 1.46 2.11 1.05 0.83 0.78 1.00 0.32 0.11 0.05 0.01 0.00 0.00 0.01 0.00 0.01 0.01 0.00 0.03 0.01 0.01 0.01 0.01 0.04 0.10 0.08 0.19 0.17 0.09 0.11 0.08 0.09 0.17 0.29 0.46 0.56 0.45 0.47 0.42
0.83 0.89 0.85 0.83 0.82 1.14 1.92 2.62 1.80 1.86 1.22 0.31 0.36 0.47 0.24 0.06 0.05 0.09 0.09 0.03 0.05 0.05 0.07 0.05 0.04 0.02 0.03 0.05 0.06 0.12 0.14 0.08 0.11 0.13 0.22 0.29 0.20 0.14 0.21 0.69 0.98 0.60 0.40 0.27
0.79 0.89 1.11 1.13 1.18 1.48 2.99 3.77 1.48 0.80 0.88 0.41 0.21 0.29 0.31 0.18 0.21 0.16 0.08 0.21 0.26 0.20 0.15 0.13 0.10 0.11 0.09 0.10 0.09 0.20 0.32 0.20 0.08 0.04 0.02 0.10 0.19 0.18 0.16 0.26 0.34 0.51 0.20 0.30
0.78 1.00 1.03 1.22 1.48 2.13 4.15 3.63 0.92 0.29 0.16 0.19 0.28 0.35 0.19 0.10 0.13 0.14 0.20 0.27 0.10 0.07 0.13 0.14 0.21 0.24 0.26 0.30 0.31 0.37 0.54 0.38 0.14 0.07 0.03 0.03 0.03 0.04 0.20 0.22 0.17 0.20 0.12 0.35
0.62 0.94 1.08 1.18 1.60 3.09 5.02 2.91 0.71 0.59 0.36 0.17 0.28 0.21 0.14 0.13 0.07 0.11 0.14 0.21 0.13 0.07 0.17 0.18 0.22 0.17 0.20 0.25 0.35 0.48 0.52 0.67 0.47 0.21 0.06 0.06 0.03 0.01 0.04 0.12 0.22 0.33 0.42 0.36
0.53 0.74 1.05 1.13 1.62 2.68 3.08 2.12 0.91 1.22 0.86 0.26 0.13 0.07 0.08 0.11 0.09 0.10 0.06 0.16 0.43 0.24 0.07 0.10 0.16 0.25 0.20 0.22 0.24 0.34 0.56 0.50 0.56 0.38 0.17 0.23 0.06 0.06 0.05 0.13 0.33 0.40 0.48 0.34
0.57 0.63 0.93 1.05 1.34 1.77 1.87 1.73 1.40 1.42 0.92 0.22 0.10 0.09 0.12 0.12 0.19 0.17 0.11 0.09 0.22 0.24 0.20 0.33 0.29 0.23 0.29 0.22 0.22 0.25 0.33 0.49 0.61 0.54 0.50 0.22 0.11 0.14 0.28 0.31 0.34 0.19 0.16 0.13
0.64 0.58 0.83 1.04 1.06 1.31 1.53 1.43 1.43 2.25 1.63 0.52 0.10 0.15 0.16 0.22 0.24 0.33 0.22 0.34 0.31 0.33 0.59 0.70 0.54 0.35 0.23 0.23 0.26 0.18 0.32 0.41 0.69 0.47 0.70 0.53 0.68 0.25 0.16 0.36 0.36 0.12 0.03 0.07
0.65 0.58 0.72 0.89 0.79 0.93 1.30 1.37 1.29 2.44 2.48 0.64 0.26 0.29 0.31 0.38 0.38 0.39 0.42 0.56 0.46 0.55 0.79 0.95 0.97 0.54 0.23 0.37 0.59 0.32 0.27 0.33 0.39 0.39 0.57 0.56 0.42 0.22 0.18 0.28 0.41 0.03 0.00 0.01
0.71 0.66 0.59 0.76 0.73 0.84 1.22 1.19 1.26 2.02 2.04 0.68 0.47 0.29 0.23 0.25 0.34 0.59 0.58 0.91 0.89 0.64 0.63 0.54 0.61 0.71 0.37 0.61 1.01 0.47 0.46 0.41 0.38 0.52 0.74 0.58 0.07 0.20 0.33 0.39 0.12 0.03 0.01 0.01
0.72 0.72 0.69 0.78 0.89 1.03 1.25 1.35 1.06 1.50 2.11 1.14 0.47 0.25 0.15 0.07 0.06 0.19 0.44 0.65 0.70 0.76 0.61 0.36 0.35 0.42 0.45 0.56 0.74 0.74 1.20 0.95 0.97 0.63 0.57 0.32 0.16 0.20 0.21 0.10 0.14 0.12 0.28 0.31
0.64 0.60 0.65 0.89 1.15 1.20 1.38 1.37 1.03 2.43 2.59 1.61 0.68 0.32 0.10 0.04 0.04 0.09 0.39 0.22 0.55 0.89 0.69 0.81 0.51 0.44 0.32 0.33 0.62 0.63 0.51 0.43 0.82 0.76 0.53 0.24 0.32 0.26 0.09 0.06 0.07 0.06 0.12 0.58
0.66 0.72 0.76 1.03 1.29 1.27 1.75 1.78 1.43 2.67 1.83 1.71 1.04 0.50 0.18 0.13 0.08 0.15 0.18 0.16 0.26 0.51 0.63 0.82 0.69 0.42 0.38 0.33 0.42 0.40 0.35 0.58 0.49 0.80 0.82 0.58 0.51 0.76 0.45 0.23 0.16 0.18 0.20 0.18
0.61 0.68 0.91 1.28 1.42 1.55 2.39 2.28 2.01 1.81 1.48 1.40 1.25 0.34 0.29 0.21 0.18 0.15 0.31 0.34 0.38 0.66 0.67 0.61 0.34 0.32 0.63 0.58 0.58 0.42 0.37 0.90 0.84 0.78 1.00 1.13 1.12 0.67 0.52 0.61 0.46 0.34 0.17 0.15
0.54 0.74 1.03 1.18 1.43 2.52 4.18 5.20 3.16 1.71 1.53 1.82 1.53 0.65 0.29 0.39 0.34 0.35 0.25 0.47 0.70 0.82 0.99 0.53 0.19 0.21 0.75 0.69 0.89 0.61 0.43 0.43 0.60 0.90 0.97 1.03 0.90 0.54 0.32 0.22 0.27 0.30 0.21 0.17
0.72 0.85 0.98 1.02 1.42 2.07 3.12 2.56 1.56 1.22 1.68 2.34 1.63 1.03 0.50 0.45 0.61 0.70 0.83 0.60 1.03 1.44 1.27 0.69 0.32 0.24 0.51 0.69 0.78 0.59 0.39 0.46 0.47 0.64 0.59 0.38 0.30 0.23 0.13 0.05 0.03 0.02 0.02 0.03
0.83 1.07 1.23 1.40 1.69 2.22 2.05 1.27 1.31 1.16 1.84 1.69 1.36 1.21 1.10 0.82 1.11 1.04 1.01 1.13 1.18 1.33 1.34 0.85 0.54 0.60 0.77 0.81 0.61 0.35 0.25 0.39 0.33 0.32 0.24 0.18 0.11 0.05 0.03 0.01 0.01 0.01 0.00 0.00
1.27 1.58 2.07 3.07 2.66 2.52 1.74 1.52 1.69 1.37 1.41 1.10 0.60 0.87 1.76 1.65 1.57 1.25 1.03 1.40 1.44 1.07 0.85 0.67 0.78 1.06 1.09 0.72 0.30 0.27 0.22 0.27 0.29 0.17 0.06 0.02 0.02 0.02 0.01 0.00 0.01 0.01 0.01 0.05
1.71 2.12 2.93 3.08 2.01 1.71 1.93 2.71 2.74 2.32 1.24 0.83 0.56 0.46 1.13 1.75 1.86 1.49 1.25 1.04 0.94 0.94 0.73 0.81 1.08 0.86 0.46 0.19 0.18 0.17 0.13 0.16 0.16 0.14 0.09 0.04 0.04 0.02 0.02 0.03 0.04 0.05 0.09 0.11
1.46 1.80 2.37 1.87 1.84 1.97 2.17 2.03 1.54 1.35 0.73 0.31 0.41 0.50 0.94 1.16 1.80 1.43 1.06 1.15 0.72 0.49 0.63 0.70 0.97 0.56 0.30 0.09 0.06 0.07 0.12 0.14 0.19 0.21 0.22 0.20 0.19 0.14 0.09 0.13 0.16 0.15 0.15 0.19
0.90 1.42 1.63 2.09 2.06 1.69 1.30 0.98 0.74 0.55 0.31 0.25 0.38 0.64 1.16 1.07 1.46 1.49 1.29 1.09 0.82 0.63 0.51 0.48 0.63 0.47 0.22 0.15 0.12 0.10 0.14 0.19 0.24 0.22 0.21 0.25 0.25 0.25 0.21 0.21 0.20 0.21 0.25 0.30
1.18 0.89 1.06 1.19 1.02 0.94 0.71 0.50 0.47 0.43 0.26 0.30 0.41 0.82 1.41 1.11 1.47 1.41 1.03 1.38 1.00 0.68 0.78 0.63 0.44 0.23 0.16 0.16 0.19 0.23 0.25 0.24 0.26 0.30 0.32 0.29 0.29 0.27 0.24 0.27 0.37 0.38 0.51 0.75
0.82 0.75 0.64 0.89 0.65 0.57 0.52 0.51 0.48 0.29 0.21 0.26 0.72 0.93 1.17 1.24 1.47 1.17 0.81 1.09 1.05 0.95 0.73 0.49 0.42 0.36 0.32 0.29 0.29 0.27 0.36 0.38 0.39 0.47 0.47 0.53 0.57 0.70 0.81 0.88 0.99 0.82 0.92 1.14
0.71 0.68 0.75 0.58 0.70 0.62 0.65 0.55 0.40 0.31 0.33 0.47 0.83 0.99 0.91 0.88 1.49 0.88 0.69 0.71 0.77 0.62 0.68 0.49 0.63 0.57 0.51 0.53 0.58 0.62 0.71 0.78 0.86 0.95 0.89 0.97 0.94 0.76 0.93 1.02 0.94 0.76 0.75 0.74
0.76 0.86 0.73 0.61 0.60 0.61 0.59 0.51 0.44 0.43 0.55 0.63 0.97 1.04 0.73 0.66 0.47 0.47 0.47 0.51 0.78 0.59 0.54 0.65 0.64 0.70 0.83 0.88 0.93 1.01 1.02 0.97 0.96 0.94 0.82 0.78 0.72 0.62 0.65 0.63 0.56 0.55 0.44 0.43
0.68 0.92 1.01 0.87 0.73 0.79 0.81 0.72 0.60 0.55 0.61 0.75 0.63 0.67 0.66 0.58 0.26 0.23 0.33 0.60 0.83 0.87 0.91 0.86 0.84 0.91 1.02 1.02 0.94 0.93 0.78 0.68 0.65 0.60 0.53 0.49 0.46 0.30 0.18 0.22 0.29 0.20 0.17 0.15